User: anonymous
Location: Ostrava
(49.8330°N, 18.2830°E)
Time: 03:51:59
(UTC+02:00)
Language:

Explorer 7 - Orbit

View from above orbital plane
View from above orbital plane
View from above satellite
View from above satellite

Ground track
Ground track

The orbit data is extracted from the following two-line orbital elements,

1 00022U 59009A   14244.48772164  .00001475  00000-0  14734-3 0    36
2 00022 050.2841 288.6206 0153720 112.0737 249.6611 14.89604107909026
Epoch (UTC): 01 September 2014 11:42:19
Eccentricity: 0.0153720
inclination: 50.2841°
perigee height: 492 km
apogee height: 706 km
right ascension of ascending node: 288.6206°
argument of perigee: 112.0737°
revolutions per day: 14.89604107
mean anomaly at epoch: 249.6611°
orbit number at epoch: 90902

The dashed part of the orbit path shows where the satellite is in the earth's shadow,  

DLR